This is the latest recevied weather packets stored in our database for station/object N0FDH. If no packets are shown the sender has not sent any weather packets the latest 10 day(s).
| Time | Temp. | Humidity | Pressure | Rain* | Wind** | Luminosity | Snow |
|---|---|---|---|---|---|---|---|
| 1777583121 | 7.22° C | 45% | 1016.3 hPa | 0 mm | - | 215 W/m² | - |
| 1777582817 | 7.22° C | 44% | 1016.3 hPa | 0 mm | - | 181 W/m² | - |
| 1777582514 | 7.22° C | 46% | 1016.4 hPa | 0 mm | - | 167 W/m² | - |
| 1777582209 | 6.67° C | 47% | 1016.2 hPa | 0 mm | - | 175 W/m² | - |
| 1777581907 | 7.22° C | 45% | 1016.5 hPa | 0 mm | - | 206 W/m² | - |
| 1777581602 | 6.67° C | 47% | 1016.6 hPa | 0 mm | - | 268 W/m² | - |
| 1777581296 | 7.22° C | 49% | 1016.4 hPa | 0 mm | - | 193 W/m² | - |
| 1777580992 | 7.78° C | 46% | 1016.4 hPa | 0 mm | - | 242 W/m² | - |
| 1777580691 | 7.22° C | 47% | 1016.5 hPa | 0 mm | - | 708 W/m² | - |
| 1777580388 | 7.78° C | 49% | 1016.5 hPa | 0 mm | - | 291 W/m² | - |
| 1777580084 | 7.22° C | 51% | 1016.6 hPa | 0 mm | - | 294 W/m² | - |
| 1777579781 | 7.22° C | 46% | 1016.6 hPa | 0 mm | - | 231 W/m² | - |
| 1777579478 | 7.22° C | 47% | 1016.6 hPa | 0 mm | - | 363 W/m² | - |
| 1777579173 | 7.22° C | 48% | 1016.7 hPa | 0 mm | - | 240 W/m² | - |
| 1777578869 | 6.67° C | 49% | 1016.8 hPa | 0 mm | - | 292 W/m² | - |
| 1777578565 | 6.67° C | 48% | 1016.8 hPa | 0 mm | - | 202 W/m² | - |
| 1777578259 | 6.67° C | 50% | 1016.8 hPa | 0 mm | - | 172 W/m² | - |
| 1777577955 | 7.22° C | 51% | 1016.7 hPa | 0 mm | - | 228 W/m² | - |
| 1777577651 | 6.67° C | 48% | 1016.6 hPa | 0 mm | - | 281 W/m² | - |
| 1777577349 | 6.67° C | 46% | 1016.8 hPa | 0 mm | - | 215 W/m² | - |
| 1777577044 | 6.67° C | 46% | 1016.8 hPa | 0 mm | - | 258 W/m² | - |
| 1777576741 | 6.67° C | 46% | 1016.8 hPa | 0 mm | - | 206 W/m² | - |
| 1777576439 | 7.22° C | 47% | 1016.7 hPa | 0 mm | - | 340 W/m² | - |
| 1777576137 | 7.22° C | 48% | 1016.9 hPa | 0 mm | - | 310 W/m² | - |
| 1777575832 | 6.67° C | 49% | 1016.8 hPa | 0 mm | - | 836 W/m² | - |
* Rain latest hour (hover to see other rain measurements)
** Current wind speed in m/s (hover to see current wind gust speed)